STARLINK-30049, 56294

Orbit data source: Space-Track

STARLINK-30049, 56294 is a payload satellite owned by SpaceX/Seattle (US) in LEO that was launched on Wed, 19 Apr 2023 UTC via an FALCON 9 launch vehicle from the Air Force Eastern Test Range (AFETR). Payload-class satellites include a variety of spacecraft equipped with specific instruments for various scientific and technological missions. These include communications satellites like Starlink; space stations such as the ISS; scientific satellites like the Hubble; Earth observation satellites from companies like Planet Labs, Umbra, and HawkEye 360; GPS; miniature CubeSats for education and research; and military/defense satellites.

Loading next visibility...
Identifier
56294, 2023-056J
Orbit
LEO
Country
Flag of USUS
Related business
Manufacturer
SpaceX/Seattle
Mission
Operational Commercial Communications
Bus & Motor
STARLINK V2M, Unknown motor
Mass
730 kg wet, ~700 kg dry
Launch date (UTC)
2023-04-19 (3 years ago)
Launch vehicle
FALCON 9
Launch site
Air Force Eastern Test Range (AFETR)
Object type
Payload
Rocket body
Debris
Shape & HBR
Box + 2 Pan, 17.7 m
Radar Cross Section
33.884 m², Large (>1 m²)

Expand to show TLE details & history
Last TLE update: 3 days ago

TLE from 3 days ago
0 STARLINK-30049
1 56294U 23056J   26170.54028250 -.00000246  00000-0  60433-6 0  9999
2 56294  43.0044 353.9127 0001295 258.2938 101.7769 15.27575320175615
Epoch: 2026-06-19T12:58Z
TLE epoch observation values (Epoch: 2026-06-19T12:58:00.408Z)
Latitude
-0°
Longitude
-108.35679°
Altitude
483.02 km
Speed
7.626 km/s
True Right ascension
23h 35m 39s
True Declination
0° 00' 00"
Sunlit
Object was in daylight at epoch
Visualization orbit readout
Latitude
Unknown
Longitude
Unknown
Altitude
Unknown
Speed
Unknown
Apparent Right ascension
Unknown
Apparent Declination
Unknown
Sunlit
N/A
Visualization observer readout
Local Sidereal Time
21:38:32
Azimuth
Unknown
Elevation
Unknown
Doppler factor
Unknown
Orbital elements
Apogee altitude
485.896 km
Perigee altitude
484.119 km
Semi-major axis
6,863.145 km
Eccentricity
0.00013
Inclination
43.0044°
RAAN
353.9127°
Arg. of periapsis
258.2938°
True anomaly
101.79143°
Mean anomaly
101.7769°
Eccentric anomaly
101.78416°
Mean motion
3.81732 °/min
Orbital period
94.31 mins
BSTAR
6.0433e-7
Loading maneuver chart data...
Computing Atmospheric mass density...
Loading historical data...
Loading historical data...
Loading historical data...
Loading historical data...
Loading historical data...
Loading historical data...
Loading historical data...

Documentation

Showing up to 5 results
|